GW3798 Weather Reports


time (UTC)temp
F
wind
direction
speed
knots
gust
knots
rain 1hr
in
rain 24hr
in
rain mn
in
humidity
%
barometer
mb
20260507180046 52 295 13.9 24.3 0.00 0.00 0.00 54 1010.7
20260507174547 53 284 11.3 17.4 0.00 0.00 0.00 52 1010.6
20260507173050 53 268 12.2 21.7 0.00 0.00 0.00 51 1010.6
20260507171551 53 309 9.6 15.6 0.00 0.00 0.00 51 1010.6
20260507170049 54 5 8.7 15.6 0.00 0.00 0.00 52 1010.5
20260507164547 53 321 7.0 14.8 0.00 0.00 0.00 52 1010.4
20260507163050 53 306 11.3 21.7 0.00 0.00 0.00 50 1010.2
20260507161546 52 295 13.9 23.5 0.00 0.00 0.00 50 1010.3
20260507160048 52 276 15.6 23.5 0.00 0.00 0.00 48 1010.3
20260507154552 52 296 16.5 25.2 0.00 0.00 0.00 49 1010.3
20260507153048 50 300 13.0 20.9 0.00 0.00 0.00 47 1010.3
20260507151545 50 298 13.0 21.7 0.00 0.00 0.00 47 1010.2
20260507150043 49 261 12.2 21.7 0.00 0.00 0.00 42 1010.2
20260507144541 51 266 9.6 16.5 0.00 0.00 0.00 39 1010.6
20260507143051 50 320 9.6 14.8 0.00 0.00 0.00 40 1010.4
20260507141551 49 323 8.7 12.2 0.00 0.00 0.00 41 1010.2
20260507140048 46 319 8.7 13.0 0.00 0.00 0.00 44 1010.1
20260507134547 46 321 9.6 13.9 0.00 0.00 0.00 43 1010.0
20260507133043 45 312 7.8 13.0 0.00 0.00 0.00 44 1009.9
20260507131558 45 307 9.6 13.9 0.00 0.00 0.00 44 1009.8
20260507130050 44 331 8.7 13.0 0.00 0.00 0.00 45 1009.6
20260507124547 43 331 7.8 12.2 0.00 0.00 0.00 45 1009.5
20260507123048 43 331 7.0 12.2 0.00 0.00 0.00 44 1009.3
20260507121546 43 325 7.8 12.2 0.00 0.00 0.00 43 1009.1
20260507120044 42 311 8.7 13.0 0.00 0.00 0.00 44 1008.9
20260507114545 42 302 10.4 17.4 0.00 0.00 0.00 44 1008.9
20260507113047 42 349 10.4 15.6 0.00 0.00 0.00 43 1008.8
20260507111540 41 335 9.6 14.8 0.00 0.00 0.00 41 1008.7
20260507110049 41 344 8.7 13.9 0.00 0.00 0.00 38 1008.7
20260507104546 40 337 8.7 14.8 0.00 0.00 0.00 38 1008.6
20260507103041 41 339 9.6 13.9 0.00 0.00 0.00 36 1008.5
20260507101541 41 319 10.4 14.8 0.00 0.00 0.00 36 1008.4
20260507100053 42 319 9.6 18.2 0.00 0.00 0.00 35 1008.3
20260507094548 42 319 9.6 15.6 0.00 0.00 0.00 35 1008.2
20260507093053 42 289 10.4 15.6 0.00 0.00 0.00 34 1008.3
20260507091543 42 282 10.4 16.5 0.00 0.00 0.00 34 1008.2
20260507090044 42 277 8.7 13.0 0.00 0.00 0.00 34 1008.4
20260507084544 42 264 7.0 12.2 0.00 0.00 0.00 33 1008.3
20260507083050 42 271 7.0 11.3 0.00 0.00 0.00 33 1008.3
20260507081547 43 264 8.7 14.8 0.00 0.00 0.00 32 1008.3
20260507080049 41 300 2.6 7.8 0.00 0.00 0.00 33 1008.5
20260507074546 42 309 5.2 11.3 0.00 0.00 0.00 33 1008.7
20260507073046 42 261 6.1 9.6 0.00 0.00 0.00 33 1008.9
20260507071602 43 267 8.7 13.0 0.00 0.00 0.00 32 1008.9
20260507070052 42 249 7.8 14.8 0.00 0.00 0.00 33 1009.0
20260507064550 42 249 8.7 10.4 0.00 0.00 0.00 32 1009.1
20260507063045 41 239 7.0 10.4 0.00 0.00 0.00 32 1009.4
20260507061556 42 237 8.7 10.4 0.00 0.00 0.00 32 1009.5
20260507060050 42 248 7.0 8.7 0.00 0.00 0.00 33 1009.6
20260507054546 42 242 6.1 8.7 0.00 0.00 0.00 32 1009.6
20260507053110 42 232 7.0 9.6 0.00 0.00 0.00 32 1010.0
20260507051544 43 251 7.8 10.4 0.00 0.00 0.00 31 1010.1
20260507050044 43 240 7.8 10.4 0.00 0.00 0.00 32 1010.0
20260507044541 43 254 6.1 8.7 0.00 0.00 0.00 32 1010.1
20260507043045 42 271 4.3 7.0 0.00 0.00 0.00 32 1010.2
20260507041543 43 311 3.5 7.0 0.00 0.00 0.00 31 1010.2
20260507040043 42 313 3.5 7.0 0.00 0.00 0.00 31 1010.5
20260507034541 42 329 4.3 8.7 0.00 0.00 0.00 31 1010.5
20260507033052 42 324 5.2 9.6 0.00 0.00 0.00 31 1010.8
20260507031551 42 327 6.1 9.6 0.00 0.00 0.00 31 1010.9
20260507030042 42 326 6.1 8.7 0.00 0.00 0.00 31 1010.8
20260507024557 42 321 5.2 8.7 0.00 0.00 0.00 31 1010.9
20260507023041 43 294 7.0 10.4 0.00 0.00 0.00 31 1010.8
20260507021550 43 304 6.1 9.6 0.00 0.00 0.00 30 1010.8
20260507020045 43 287 5.2 9.6 0.00 0.00 0.00 30 1010.7
20260507014549 44 292 7.0 10.4 0.00 0.00 0.00 30 1010.8
20260507013050 44 269 7.0 12.2 0.00 0.00 0.00 29 1010.9
20260507011542 44 278 7.8 13.9 0.00 0.00 0.00 29 1010.9
20260507010051 45 264 8.7 15.6 0.00 0.00 0.00 28 1010.7
20260507004546 44 271 6.1 17.4 0.00 0.00 0.00 30 1011.0
20260507003044 44 254 10.4 15.6 0.00 0.00 0.00 29 1011.2
20260507001552 46 247 9.6 16.5 0.00 0.00 0.00 29 1011.5
20260507000051 45 296 11.3 20.9 0.00 0.00 0.00 28 1011.5
20260506234550 45 257 13.0 23.5 0.00 0.00 0.00 28 1011.6
20260506233055 45 252 14.8 22.6 0.00 0.00 0.00 27 1011.6
20260506231548 44 257 13.0 19.1 0.00 0.00 0.00 28 1011.8
20260506230045 45 253 13.0 20.9 0.00 0.00 0.00 28 1011.7
20260506224542 45 288 13.9 20.0 0.00 0.00 0.00 26 1011.9
20260506223040 45 309 13.0 22.6 0.00 0.00 0.00 29 1011.8
20260506221550 44 275 13.9 25.2 0.00 0.00 0.00 30 1012.2
20260506220046 44 273 9.6 21.7 0.00 0.00 0.00 31 1012.6
20260506214555 45 277 8.7 20.0 0.00 0.00 0.00 30 1012.7
20260506213044 43 249 13.0 22.6 0.00 0.00 0.00 31 1012.9
20260506211544 42 247 11.3 20.0 0.00 0.00 0.00 33 1013.3
20260506210041 42 294 11.3 18.2 0.00 0.00 0.00 34 1013.5
20260506204544 41 308 12.2 21.7 0.00 0.00 0.00 34 1013.7
20260506203040 42 250 7.8 17.4 0.00 0.00 0.00 35 1013.9
20260506201549 42 290 9.6 19.1 0.00 0.00 0.00 35 1013.7
20260506200049 41 331 11.3 17.4 0.00 0.00 0.00 36 1013.6
20260506194543 41 288 7.8 15.6 0.00 0.00 0.00 37 1013.9
20260506193040 39 243 8.7 23.5 0.00 0.00 0.00 37 1014.4
20260506191557 39 287 9.6 17.4 0.00 0.00 0.00 38 1014.5
20260506190046 38 244 7.0 14.8 0.00 0.00 0.00 40 1014.8
20260506184551 37 250 10.4 20.9 0.00 0.00 0.00 41 1014.6
20260506183050 37 281 6.1 14.8 0.00 0.00 0.00 41 1014.9
20260506181554 37 294 6.1 15.6 0.00 0.00 0.00 43 1015.2